Regional Weather Roundup
Issued by NWS

Home | Current Version | Previous Version | Graphics & Text | Print | Product List | Glossary On
Versions: 1 2 3 4 5 6 7 8 9 10 11 12 13 14 15 16 17 18 19 20 21 22 23 24 25 26 27 28 29 30 31 32 33 34 35 36 37 38 39 40 41 42 43 44 45 46 47 48 49 50
838
ASUS43 KOAX 231702
RWRNE

WEATHER ROUNDUP FOR NEBRASKA
NATIONAL WEATHER SERVICE OMAHA NE
1100 AM CST THU NOV 23 2017

NOTES: SATELLITE DATA IS BEING USED TO AUGMENT CLOUD COVER ABOVE
       12000 FEET.
       "FAIR" INDICATES FEW OR NO CLOUDS BELOW 12,000 FEET WITH NO
       SIGNIFICANT WEATHER AND/OR OBSTRUCTIONS TO VISIBILITY.


NEZ001>004-019>022-054>056-231800-
NEBRASKA PANHANDLE

CITY           SKY/WX    TMP DP  RH WIND       PRES   REMARKS
SCOTTSBLUFF    CLOUDY    54  40  59 VRB5      30.07F
ALLIANCE       CLOUDY    59  43  55 W18       30.04F
CHADRON        SUNNY     56  42  59 SW6       30.01F
GORDON         FAIR      58  40  51 W14       29.99F
KIMBALL        CLOUDY    60  37  41 W16       30.13S
SIDNEY         CLOUDY    61  40  45 W12       30.11F
$$

NEZ057>060-069>072-079>082-231800-
SOUTHWEST NEBRASKA

CITY           SKY/WX    TMP DP  RH WIND       PRES   REMARKS
NORTH PLATTE   SUNNY     55  41  59 W5        30.06F
IMPERIAL       SUNNY     62  42  47 W10       30.10F
LEXINGTON      SUNNY     57  41  56 W6        30.06F
MCCOOK         SUNNY     54  42  64 W9        30.09S
OGALLALA       SUNNY     56  43  60 SW7       30.08S
$$

NEZ005>010-023>029-035>040-094-231800-
NORTH CENTRAL NEBRASKA

CITY           SKY/WX    TMP DP  RH WIND       PRES   REMARKS
VALENTINE      SUNNY     62  41  46 W12       29.96F
AINSWORTH      SUNNY     63  42  47 W12       29.97F
BROKEN BOW     SUNNY     62  42  47 W8        30.02F
O`NEILL        CLOUDY    60  44  56 SW9       29.98F
ORD            SUNNY     60  41  49 W10       30.01F
THEDFORD       SUNNY     64  42  44 W12       30.01F
$$

NEZ041-046>049-061>064-073>077-083>087-231800-
SOUTH CENTRAL NEBRASKA

CITY           SKY/WX    TMP DP  RH WIND       PRES   REMARKS
GRAND ISLAND   SUNNY     58  41  53 W7        30.04F
AURORA         SUNNY     60  41  48 SW7       30.03F
HASTINGS       SUNNY     60  40  47 SW3       30.05F
HEBRON         SUNNY     60  39  46 CALM      30.05S
HOLDREGE       SUNNY     62  42  48 W3        30.06F
KEARNEY        SUNNY     61  41  47 SW7       30.05F
YORK           SUNNY     59  41  51 SW3       30.03F
$$

NEZ011>018-030>034-042>045-231800-
NORTHEAST NEBRASKA

CITY           SKY/WX    TMP DP  RH WIND       PRES   REMARKS
NORFOLK        CLOUDY    54  40  59 S5        29.99F
ALBION         SUNNY     61  42  49 SW6       30.01S
BLAIR          SUNNY     52  36  54 CALM      30.01S
COLUMBUS       CLOUDY    52  38  58 MISG      30.03F
FREMONT        SUNNY     51  36  55 CALM      30.02F
TEKAMAH        SUNNY     49  33  54 CALM      30.01F
WAYNE          SUNNY     52  33  49 CALM      29.99F
$$

NEZ050>053-065>068-078-088>093-231800-
SOUTHEAST NEBRASKA

CITY           SKY/WX    TMP DP  RH WIND       PRES   REMARKS
LINCOLN        SUNNY     56  37  49 CALM      30.04F
OMAHA EPPLEY   MOSUNNY   50  34  54 N6        30.02F
BEATRICE       SUNNY     56  38  50 W3        30.03F
FALLS CITY     SUNNY     54  35  48 CALM      30.03S
NEBRASKA CITY  SUNNY     55  37  52 N6        30.02F
PLATTSMOUTH    SUNNY     50  36  58 N5        30.02F
$$

NEZ044-045-051>053-067-231800-
OMAHA AREA

CITY           SKY/WX    TMP DP  RH WIND       PRES   REMARKS
OMAHA EPPLEY   MOSUNNY   50  34  54 N6        30.02F
BLAIR          SUNNY     52  36  54 CALM      30.01S
FREMONT        SUNNY     51  36  55 CALM      30.02F
MILLARD        SUNNY     53  36  52 CALM      30.02F
OFFUTT AFB     SUNNY     49  34  55 CALM      30.02S
PLATTSMOUTH    SUNNY     50  36  58 N5        30.02F
WAHOO          FAIR      53  36  51 N3        30.02F
$$




USA.gov is the U.S. government's official web portal to all federal, state and local government web resources and services.